Meteo Giornale » Osservazioni meteo Italia » Torino-Caselle

ore: 18:50 - Osservazioni Meteo Torino-Caselle
Lat. 45° 13' N Lon. 7° 39' E Alt. 301 metri s.l.m.

sereno Europe/Rome

22 °C

Sereno

Temp. 24 Ore

14 °C

22 °C

Sud-Ovest

9.3 Km/h

Dew point 11 °C

Umidità 49 %

Visibilità  10 Km

Il sole sorge alle ore 05:43

Il sole tramonta alle ore 21:11

Data e Ora Cielo e Fenomeni T °C DP °C Um. % Pres. hPa Vis. km Vento km/h
Oggi h: 18:50 sereno Sereno 22 11 49 1014 10 SO 9.3
Oggi h: 17:50 poco_nuvoloso Poco Nuvoloso 21 10 49 1014 10 N 3.7
Oggi h: 16:50 poco_nuvoloso Poco Nuvoloso 22 11 49 1015 10 N 5.5
Oggi h: 16:20 nuvoloso Nuvoloso 22 11 49 1015 10 S 7.4
Oggi h: 15:50 nuvoloso Nuvoloso 21 11 52 1015 10 N 3.7
Oggi h: 15:20 nuvoloso Nuvoloso 20 11 56 1015 10 N 9.3
Oggi h: 14:50 nuvoloso Nuvoloso 21 12 56 1016 10 N 9.3
Oggi h: 14:20 nuvoloso Nuvoloso 20 12 59 1016 8 N 5.5
Oggi h: 13:50 nuvoloso Nuvoloso 19 12 63 1016 8 N 5.5
Oggi h: 13:20 molto_nuvoloso Molto Nuvoloso 19 12 63 1017 8 N 5.5
Oggi h: 12:50 molto_nuvoloso Molto Nuvoloso 18 12 67 1017 8 N 5.5
Oggi h: 12:20 molto_nuvoloso Molto Nuvoloso 18 12 67 1017 8 N/NE 9.3
Oggi h: 11:50 nuvoloso Nuvoloso 18 11 63 1017 8 N/NE 9.3
Oggi h: 11:20 molto_nuvoloso Molto Nuvoloso 18 13 72 1017 8 N 5.5
Oggi h: 10:50 molto_nuvoloso Molto Nuvoloso 16 12 77 1017 8 N 3.7
Oggi h: 10:20 molto_nuvoloso Molto Nuvoloso 16 12 77 1017 8 N 3.7
Oggi h: 09:50 molto_nuvoloso Molto Nuvoloso 15 12 82 1018 8 N 5.5
Oggi h: 09:20 coperto Coperto 15 12 82 1018 8 N 5.5
Oggi h: 08:50 coperto Coperto 15 12 82 1018 8 N 5.5
Oggi h: 08:20 coperto Coperto 15 12 82 1017 8 NE 7.4
Oggi h: 07:50 coperto Coperto 14 12 87 1017 8 NE 9.3
Oggi h: 07:20 molto_nuvoloso Molto Nuvoloso 14 13 93 1017 8 N 3.7
Oggi h: 06:50 molto_nuvoloso Molto Nuvoloso 14 12 87 1017 10 N 3.7
Oggi h: 06:20 molto_nuvoloso Molto Nuvoloso 14 12 87 1017 10 N 1.8
Oggi h: 05:50 molto_nuvoloso Molto Nuvoloso 14 12 87 1017 10 N 5.5
Oggi h: 05:20 molto_nuvoloso Molto Nuvoloso 14 12 87 1017 10 N 5.5
Oggi h: 04:50 molto_nuvoloso Molto Nuvoloso 14 12 87 1016 10 N 5.5
Oggi h: 04:20 molto_nuvoloso Molto Nuvoloso 14 11 82 1016 10 N 3.7
Oggi h: 03:50 coperto Coperto 15 12 82 1016 10 N 7.4
Oggi h: 03:20 molto_nuvoloso Molto Nuvoloso 15 11 76 1016 10 N/NE 9.3
Oggi h: 02:50 coperto Coperto 15 12 82 1016 10 N/NE 9.3
Oggi h: 02:20 coperto Coperto 15 12 82 1016 10 NE 7.4
Oggi h: 01:50 molto_nuvoloso Molto Nuvoloso 16 12 77 1016 10 NE 11.1
Oggi h: 01:20 molto_nuvoloso Molto Nuvoloso 17 12 72 1016 10 N 5.5
Oggi h: 00:50 coperto Coperto 17 12 72 1016 10 N 7.4
Oggi h: 00:20 coperto Coperto 17 12 72 1016 10 N 5.5
Ieri h: 23:50 coperto Coperto 17 12 72 1016 10 N/NO 9.3
Ieri h: 23:20 molto_nuvoloso Molto Nuvoloso 16 13 82 1015 10 N/NO 9.3
Ieri h: 22:50 molto_nuvoloso Molto Nuvoloso 17 13 77 1015 10 N 9.3
Ieri h: 22:20 molto_nuvoloso Molto Nuvoloso 18 13 72 1015 10 N/NE 9.3
Ieri h: 21:50 molto_nuvoloso Molto Nuvoloso 18 13 72 1015 10 N 5.5
Ieri h: 21:20 molto_nuvoloso Molto Nuvoloso 19 13 68 1014 10 N 3.7
Ieri h: 20:50 molto_nuvoloso Molto Nuvoloso 19 12 63 1014 10 N 5.5
Ieri h: 20:20 molto_nuvoloso Molto Nuvoloso 19 12 63 1014 10 N 7.4
Ieri h: 19:50 molto_nuvoloso Molto Nuvoloso 20 12 59 1014 10 N 9.3